Time,TemperatureF,DewpointF,PressureIn,WindDirection,WindDirectionDegrees,WindSpeedMPH,WindSpeedGustMPH,Humidity,HourlyPrecipIn,Conditions,Clouds,dailyrainin,SoftwareType,DateUTC
2013-11-05 00:01:00,52.6,46.3,30.28,SE,126,0.0,0.0,79,0.00,,,0.00,Wunderground v.1.15,2013-11-05 05:01:00,
2013-11-05 00:03:00,52.5,46.2,30.28,SE,126,0.0,0.0,79,0.00,,,0.00,Wunderground v.1.15,2013-11-05 05:03:00,
2013-11-05 00:05:00,52.5,46.5,30.28,SE,126,0.0,0.0,80,0.00,,,0.00,Wunderground v.1.15,2013-11-05 05:05:00,
2013-11-05 00:09:00,52.3,46.3,30.29,SE,126,0.0,0.0,80,0.00,,,0.00,Wunderground v.1.15,2013-11-05 05:09:00,
2013-11-05 00:13:00,52.2,46.5,30.29,SE,126,0.0,0.0,81,0.00,,,0.00,Wunderground v.1.15,2013-11-05 05:13:00,
2013-11-05 00:19:00,52.0,46.7,30.29,SE,126,0.0,0.0,82,0.00,,,0.00,Wunderground v.1.15,2013-11-05 05:19:00,
2013-11-05 00:25:00,51.8,46.8,30.29,SE,126,0.0,0.0,83,0.00,,,0.00,Wunderground v.1.15,2013-11-05 05:25:00,
2013-11-05 00:27:00,51.7,47.0,30.29,SE,126,0.0,0.0,84,0.00,,,0.00,Wunderground v.1.15,2013-11-05 05:27:00,
2013-11-05 00:33:00,51.5,47.1,30.29,SE,126,0.0,0.0,85,0.00,,,0.00,Wunderground v.1.15,2013-11-05 05:33:00,
2013-11-05 00:39:00,51.3,46.9,30.28,SE,126,0.0,0.0,85,0.00,,,0.00,Wunderground v.1.15,2013-11-05 05:39:00,
2013-11-05 00:45:00,51.1,47.4,30.28,SE,126,0.0,0.0,87,0.00,,,0.00,Wunderground v.1.15,2013-11-05 05:45:00,
2013-11-05 00:51:00,50.9,47.5,30.29,SE,126,0.0,0.0,88,0.00,,,0.00,Wunderground v.1.15,2013-11-05 05:51:00,
2013-11-05 00:57:00,50.6,47.2,30.29,SE,126,0.0,0.0,88,0.00,,,0.00,Wunderground v.1.15,2013-11-05 05:57:00,
2013-11-05 01:03:00,50.5,47.1,30.29,SE,126,0.0,0.0,88,0.00,,,0.00,Wunderground v.1.15,2013-11-05 06:03:00,
2013-11-05 01:09:00,50.4,47.3,30.29,SE,126,0.0,0.0,89,0.00,,,0.00,Wunderground v.1.15,2013-11-05 06:09:00,
2013-11-05 01:15:00,50.3,47.5,30.28,SE,126,0.0,0.0,90,0.00,,,0.00,Wunderground v.1.15,2013-11-05 06:15:00,
2013-11-05 01:21:00,50.1,47.3,30.28,SE,126,0.0,0.0,90,0.00,,,0.00,Wunderground v.1.15,2013-11-05 06:21:00,
2013-11-05 01:27:00,50.0,47.5,30.28,SE,126,0.0,0.0,91,0.00,,,0.00,Wunderground v.1.15,2013-11-05 06:27:00,
2013-11-05 01:33:00,49.9,47.4,30.28,SE,126,0.0,0.0,91,0.00,,,0.00,Wunderground v.1.15,2013-11-05 06:33:00,
2013-11-05 01:39:00,49.8,47.6,30.28,SE,126,0.0,0.0,92,0.00,,,0.00,Wunderground v.1.15,2013-11-05 06:39:00,
2013-11-05 01:45:00,49.7,47.5,30.28,SE,126,0.0,0.0,92,0.00,,,0.00,Wunderground v.1.15,2013-11-05 06:45:00,
2013-11-05 01:51:00,49.7,47.5,30.28,SE,126,0.0,0.0,92,0.00,,,0.00,Wunderground v.1.15,2013-11-05 06:51:00,
2013-11-05 01:57:00,49.7,47.5,30.28,SE,126,0.0,0.0,92,0.00,,,0.00,Wunderground v.1.15,2013-11-05 06:57:00,
2013-11-05 02:03:00,49.6,47.7,30.29,SE,126,0.0,0.0,93,0.00,,,0.00,Wunderground v.1.15,2013-11-05 07:03:00,
2013-11-05 02:09:00,49.6,47.7,30.29,SE,126,0.0,0.0,93,0.00,,,0.00,Wunderground v.1.15,2013-11-05 07:09:00,
2013-11-05 02:15:00,49.6,47.7,30.29,SE,126,0.0,0.0,93,0.00,,,0.00,Wunderground v.1.15,2013-11-05 07:15:00,
2013-11-05 02:21:00,49.6,47.7,30.28,SE,126,0.0,0.0,93,0.00,,,0.00,Wunderground v.1.15,2013-11-05 07:21:00,
2013-11-05 02:27:00,49.7,47.8,30.29,SE,126,0.0,0.0,93,0.00,,,0.00,Wunderground v.1.15,2013-11-05 07:27:00,
2013-11-05 02:33:00,49.7,47.8,30.30,SE,126,0.0,0.0,93,0.00,,,0.00,Wunderground v.1.15,2013-11-05 07:33:00,
2013-11-05 02:39:00,49.7,47.8,30.30,SE,126,0.0,0.0,93,0.00,,,0.00,Wunderground v.1.15,2013-11-05 07:39:00,
2013-11-05 02:45:00,49.7,47.8,30.30,SE,126,0.0,0.0,93,0.00,,,0.00,Wunderground v.1.15,2013-11-05 07:45:00,
2013-11-05 02:51:00,49.7,47.8,30.30,SE,126,0.0,0.0,93,0.00,,,0.00,Wunderground v.1.15,2013-11-05 07:51:00,
2013-11-05 02:57:00,49.7,47.8,30.30,SE,126,0.0,0.0,93,0.00,,,0.00,Wunderground v.1.15,2013-11-05 07:57:00,
2013-11-05 03:03:00,49.8,47.9,30.31,SE,126,0.0,0.0,93,0.00,,,0.00,Wunderground v.1.15,2013-11-05 08:03:00,
2013-11-05 03:09:00,49.8,47.9,30.30,SE,126,0.0,0.0,93,0.00,,,0.00,Wunderground v.1.15,2013-11-05 08:09:00,
2013-11-05 03:15:00,49.8,48.1,30.30,SE,126,0.0,0.0,94,0.00,,,0.00,Wunderground v.1.15,2013-11-05 08:15:00,
2013-11-05 03:21:00,49.8,48.1,30.30,SE,126,0.0,0.0,94,0.00,,,0.00,Wunderground v.1.15,2013-11-05 08:21:00,
2013-11-05 03:27:00,49.7,48.0,30.30,SE,126,0.0,0.0,94,0.00,,,0.00,Wunderground v.1.15,2013-11-05 08:27:00,
2013-11-05 03:33:00,49.7,48.0,30.31,SE,126,0.0,0.0,94,0.00,,,0.00,Wunderground v.1.15,2013-11-05 08:33:00,
2013-11-05 03:39:00,49.7,48.0,30.30,SE,126,0.0,0.0,94,0.00,,,0.00,Wunderground v.1.15,2013-11-05 08:39:00,
2013-11-05 03:45:00,49.7,48.0,30.30,SE,126,0.0,0.0,94,0.00,,,0.00,Wunderground v.1.15,2013-11-05 08:45:00,
2013-11-05 03:51:00,49.7,48.0,30.31,SE,126,0.0,0.0,94,0.00,,,0.00,Wunderground v.1.15,2013-11-05 08:51:00,
2013-11-05 03:57:00,49.7,48.0,30.30,SE,126,0.0,0.0,94,0.00,,,0.00,Wunderground v.1.15,2013-11-05 08:57:00,
2013-11-05 04:03:00,49.7,48.0,30.30,SE,126,0.0,0.0,94,0.00,,,0.00,Wunderground v.1.15,2013-11-05 09:03:00,
2013-11-05 04:09:00,49.7,48.0,30.29,SE,126,0.0,0.0,94,0.00,,,0.00,Wunderground v.1.15,2013-11-05 09:09:00,
2013-11-05 04:15:00,49.6,47.7,30.29,SE,126,0.0,0.0,93,0.00,,,0.00,Wunderground v.1.15,2013-11-05 09:15:00,
2013-11-05 04:21:00,49.5,47.6,30.30,SE,126,0.0,0.0,93,0.00,,,0.00,Wunderground v.1.15,2013-11-05 09:21:00,
2013-11-05 04:27:00,49.5,47.6,30.30,SE,126,0.0,0.0,93,0.00,,,0.00,Wunderground v.1.15,2013-11-05 09:27:00,
2013-11-05 04:33:00,49.5,47.6,30.30,SE,126,0.0,0.0,93,0.00,,,0.00,Wunderground v.1.15,2013-11-05 09:33:00,
2013-11-05 04:39:00,49.5,47.6,30.29,SE,126,0.0,0.0,93,0.00,,,0.00,Wunderground v.1.15,2013-11-05 09:39:00,
2013-11-05 04:45:00,49.4,47.5,30.30,SE,126,0.0,0.0,93,0.00,,,0.00,Wunderground v.1.15,2013-11-05 09:45:00,
2013-11-05 04:51:00,49.4,47.5,30.30,SE,126,0.0,0.0,93,0.00,,,0.00,Wunderground v.1.15,2013-11-05 09:51:00,
2013-11-05 04:57:00,49.2,47.3,30.29,SE,126,0.0,0.0,93,0.00,,,0.00,Wunderground v.1.15,2013-11-05 09:57:00,
2013-11-05 05:03:00,49.1,47.2,30.30,SE,126,0.0,0.0,93,0.00,,,0.00,Wunderground v.1.15,2013-11-05 10:03:00,
2013-11-05 05:09:00,49.0,47.1,30.30,SE,126,0.0,0.0,93,0.00,,,0.00,Wunderground v.1.15,2013-11-05 10:09:00,
2013-11-05 05:15:00,48.8,46.9,30.30,SE,126,0.0,0.0,93,0.00,,,0.00,Wunderground v.1.15,2013-11-05 10:15:00,
2013-11-05 05:21:00,48.7,46.8,30.30,SE,126,0.0,0.0,93,0.00,,,0.00,Wunderground v.1.15,2013-11-05 10:21:00,
2013-11-05 05:27:00,48.6,46.7,30.31,SE,126,0.0,0.0,93,0.00,,,0.00,Wunderground v.1.15,2013-11-05 10:27:00,
2013-11-05 05:33:00,48.6,46.7,30.31,SE,126,0.0,0.0,93,0.00,,,0.00,Wunderground v.1.15,2013-11-05 10:33:00,
2013-11-05 05:39:00,48.6,46.7,30.30,SE,126,0.0,0.0,93,0.00,,,0.00,Wunderground v.1.15,2013-11-05 10:39:00,
2013-11-05 05:45:00,48.4,46.5,30.30,SE,126,0.0,0.0,93,0.00,,,0.00,Wunderground v.1.15,2013-11-05 10:45:00,
2013-11-05 05:51:00,48.4,46.5,30.31,SE,126,0.0,0.0,93,0.00,,,0.00,Wunderground v.1.15,2013-11-05 10:51:00,
2013-11-05 05:57:00,48.3,46.4,30.31,SE,126,0.0,0.0,93,0.00,,,0.00,Wunderground v.1.15,2013-11-05 10:57:00,
2013-11-05 06:03:00,48.4,46.5,30.31,SE,126,0.0,0.0,93,0.00,,,0.00,Wunderground v.1.15,2013-11-05 11:03:00,
2013-11-05 06:09:00,48.6,46.4,30.31,SE,126,0.0,0.0,92,0.00,,,0.00,Wunderground v.1.15,2013-11-05 11:09:00,
2013-11-05 06:15:00,48.8,46.3,30.30,SE,126,0.0,0.0,91,0.00,,,0.00,Wunderground v.1.15,2013-11-05 11:15:00,
2013-11-05 06:21:00,48.8,46.3,30.31,SE,126,0.0,0.0,91,0.00,,,0.00,Wunderground v.1.15,2013-11-05 11:21:00,
2013-11-05 06:27:00,48.6,46.1,30.31,SE,126,0.0,0.0,91,0.00,,,0.00,Wunderground v.1.15,2013-11-05 11:27:00,
2013-11-05 06:33:00,48.5,46.3,30.31,SE,126,0.0,0.0,92,0.00,,,0.00,Wunderground v.1.15,2013-11-05 11:33:00,
2013-11-05 06:39:00,48.5,46.0,30.32,SE,126,0.0,0.0,91,0.00,,,0.00,Wunderground v.1.15,2013-11-05 11:39:00,
2013-11-05 06:45:00,48.5,46.0,30.32,SE,126,0.0,0.0,91,0.00,,,0.00,Wunderground v.1.15,2013-11-05 11:45:00,
2013-11-05 06:51:00,48.6,45.5,30.32,SE,126,0.0,0.0,89,0.00,,,0.00,Wunderground v.1.15,2013-11-05 11:51:00,
2013-11-05 06:57:00,48.9,45.5,30.32,SE,126,0.0,0.0,88,0.00,,,0.00,Wunderground v.1.15,2013-11-05 11:57:00,
2013-11-05 07:03:00,49.0,45.6,30.32,SE,126,0.0,0.0,88,0.00,,,0.00,Wunderground v.1.15,2013-11-05 12:03:00,
2013-11-05 07:09:00,49.0,45.3,30.32,SE,126,0.0,0.0,87,0.00,,,0.00,Wunderground v.1.15,2013-11-05 12:09:00,
2013-11-05 07:15:00,49.0,45.3,30.32,SE,126,0.0,0.0,87,0.00,,,0.00,Wunderground v.1.15,2013-11-05 12:15:00,
2013-11-05 07:21:00,49.1,45.1,30.32,SE,126,0.0,0.0,86,0.00,,,0.00,Wunderground v.1.15,2013-11-05 12:21:00,
2013-11-05 07:27:00,49.2,45.2,30.32,SE,126,0.0,0.0,86,0.00,,,0.00,Wunderground v.1.15,2013-11-05 12:27:00,
2013-11-05 07:33:00,49.3,45.3,30.31,SE,126,0.0,0.0,86,0.00,,,0.00,Wunderground v.1.15,2013-11-05 12:33:00,
2013-11-05 07:39:00,49.3,45.0,30.32,SE,126,0.0,0.0,85,0.00,,,0.00,Wunderground v.1.15,2013-11-05 12:39:00,
2013-11-05 07:45:00,49.4,44.8,30.32,SE,126,0.0,0.0,84,0.00,,,0.00,Wunderground v.1.15,2013-11-05 12:45:00,
2013-11-05 07:51:00,49.5,44.9,30.32,SE,126,0.0,0.0,84,0.00,,,0.00,Wunderground v.1.15,2013-11-05 12:51:00,
2013-11-05 07:57:00,49.6,45.0,30.32,SE,126,0.0,0.0,84,0.00,,,0.00,Wunderground v.1.15,2013-11-05 12:57:00,
2013-11-05 08:03:00,49.7,44.7,30.33,SE,126,0.0,0.0,83,0.00,,,0.00,Wunderground v.1.15,2013-11-05 13:03:00,
2013-11-05 08:09:00,49.9,44.6,30.33,SE,126,0.0,0.0,82,0.00,,,0.00,Wunderground v.1.15,2013-11-05 13:09:00,
2013-11-05 08:15:00,50.1,44.5,30.32,SE,126,0.0,1.0,81,0.00,,,0.00,Wunderground v.1.15,2013-11-05 13:15:00,
2013-11-05 08:21:00,50.4,44.8,30.33,SE,126,0.0,0.0,81,0.00,,,0.01,Wunderground v.1.15,2013-11-05 13:21:00,
2013-11-05 08:27:00,50.6,44.7,30.33,SE,126,0.0,0.0,80,0.00,,,0.01,Wunderground v.1.15,2013-11-05 13:27:00,
2013-11-05 08:33:00,50.8,44.5,30.34,SE,126,0.0,2.0,79,0.00,,,0.01,Wunderground v.1.15,2013-11-05 13:33:00,
2013-11-05 08:39:00,51.1,44.8,30.33,SE,126,1.0,2.0,79,0.00,,,0.01,Wunderground v.1.15,2013-11-05 13:39:00,
2013-11-05 08:45:00,51.4,44.8,30.33,SE,126,1.0,4.0,78,0.00,,,0.01,Wunderground v.1.15,2013-11-05 13:45:00,
2013-11-05 08:51:00,51.6,44.6,30.34,SE,126,1.0,1.0,77,0.00,,,0.01,Wunderground v.1.15,2013-11-05 13:51:00,
2013-11-05 08:57:00,51.8,44.8,30.34,SE,126,0.0,2.0,77,0.00,,,0.01,Wunderground v.1.15,2013-11-05 13:57:00,
2013-11-05 09:03:00,52.0,44.7,30.34,SE,134,1.0,3.0,76,0.00,,,0.01,Wunderground v.1.15,2013-11-05 14:03:00,
2013-11-05 09:09:00,52.2,44.5,30.34,SE,134,1.0,3.0,75,0.00,,,0.01,Wunderground v.1.15,2013-11-05 14:09:00,
2013-11-05 09:15:00,52.4,44.7,30.34,SSE,165,1.0,7.0,75,0.00,,,0.01,Wunderground v.1.15,2013-11-05 14:15:00,
2013-11-05 09:21:00,52.6,44.5,30.34,SSE,160,2.0,2.0,74,0.00,,,0.01,Wunderground v.1.15,2013-11-05 14:21:00,
2013-11-05 09:27:00,52.9,44.8,30.34,SE,135,2.0,4.0,74,0.00,,,0.01,Wunderground v.1.15,2013-11-05 14:27:00,
2013-11-05 09:33:00,53.1,44.3,30.34,South,189,3.0,5.0,72,0.00,,,0.01,Wunderground v.1.15,2013-11-05 14:33:00,
2013-11-05 09:39:00,53.4,44.6,30.34,SSE,161,2.0,5.0,72,0.00,,,0.01,Wunderground v.1.15,2013-11-05 14:39:00,
2013-11-05 09:45:00,53.6,44.0,30.34,SSE,162,3.0,7.0,70,0.00,,,0.01,Wunderground v.1.15,2013-11-05 14:45:00,
2013-11-05 09:51:00,54.0,45.2,30.35,WSW,250,3.0,6.0,72,0.00,,,0.01,Wunderground v.1.15,2013-11-05 14:51:00,
2013-11-05 09:57:00,54.4,45.2,30.35,SSW,203,2.0,6.0,71,0.00,,,0.01,Wunderground v.1.15,2013-11-05 14:57:00,
2013-11-05 10:03:00,54.7,45.1,30.35,SSW,193,3.0,3.0,70,0.00,,,0.01,Wunderground v.1.15,2013-11-05 15:03:00,
2013-11-05 10:09:00,55.1,45.5,30.36,South,189,3.0,4.0,70,0.00,,,0.01,Wunderground v.1.15,2013-11-05 15:09:00,
2013-11-05 10:15:00,55.5,46.2,30.35,South,187,3.0,3.0,71,0.00,,,0.01,Wunderground v.1.15,2013-11-05 15:15:00,
2013-11-05 10:21:00,55.7,45.7,30.35,South,172,3.0,4.0,69,0.00,,,0.01,Wunderground v.1.15,2013-11-05 15:21:00,
2013-11-05 10:27:00,55.8,45.4,30.35,South,180,4.0,4.0,68,0.00,,,0.01,Wunderground v.1.15,2013-11-05 15:27:00,
2013-11-05 10:33:00,55.9,45.1,30.36,SSE,163,3.0,4.0,67,0.00,,,0.01,Wunderground v.1.15,2013-11-05 15:33:00,
2013-11-05 10:39:00,55.9,44.7,30.35,SSE,155,4.0,7.0,66,0.00,,,0.01,Wunderground v.1.15,2013-11-05 15:39:00,
2013-11-05 10:45:00,56.1,44.9,30.35,SSE,155,4.0,6.0,66,0.00,,,0.01,Wunderground v.1.15,2013-11-05 15:45:00,
2013-11-05 10:51:00,56.3,45.1,30.36,SW,228,4.0,8.0,66,0.00,,,0.01,Wunderground v.1.15,2013-11-05 15:51:00,
2013-11-05 10:57:00,56.5,45.7,30.35,WSW,245,3.0,8.0,67,0.00,,,0.01,Wunderground v.1.15,2013-11-05 15:57:00,
2013-11-05 11:03:00,56.6,45.4,30.36,South,172,3.0,3.0,66,0.00,,,0.01,Wunderground v.1.15,2013-11-05 16:03:00,
2013-11-05 11:09:00,56.9,45.7,30.35,SSW,206,2.0,3.0,66,0.00,,,0.01,Wunderground v.1.15,2013-11-05 16:09:00,
2013-11-05 11:15:00,57.2,45.5,30.35,SSW,198,3.0,4.0,65,0.00,,,0.01,Wunderground v.1.15,2013-11-05 16:15:00,
2013-11-05 11:21:00,57.3,45.6,30.35,SE,140,4.0,4.0,65,0.00,,,0.01,Wunderground v.1.15,2013-11-05 16:21:00,
2013-11-05 11:27:00,57.6,45.5,30.34,South,184,4.0,4.0,64,0.00,,,0.01,Wunderground v.1.15,2013-11-05 16:27:00,
2013-11-05 11:33:00,57.7,46.4,30.35,South,191,3.0,3.0,66,0.00,,,0.01,Wunderground v.1.15,2013-11-05 16:33:00,
2013-11-05 11:39:00,57.8,45.7,30.34,South,171,2.0,6.0,64,0.00,,,0.01,Wunderground v.1.15,2013-11-05 16:39:00,
2013-11-05 11:45:00,57.9,46.2,30.34,SW,218,3.0,4.0,65,0.00,,,0.01,Wunderground v.1.15,2013-11-05 16:45:00,
2013-11-05 11:51:00,58.3,47.0,30.33,SSE,165,2.0,2.0,66,0.00,,,0.01,Wunderground v.1.15,2013-11-05 16:51:00,
2013-11-05 11:57:00,58.7,47.0,30.33,SSW,211,3.0,4.0,65,0.00,,,0.01,Wunderground v.1.15,2013-11-05 16:57:00,
2013-11-05 12:03:00,59.2,47.8,30.32,SSE,165,3.0,3.0,66,0.00,,,0.01,Wunderground v.1.15,2013-11-05 17:03:00,
2013-11-05 12:09:00,59.7,47.5,30.32,South,173,2.0,4.0,64,0.00,,,0.01,Wunderground v.1.15,2013-11-05 17:09:00,
2013-11-05 12:15:00,60.0,47.8,30.32,SE,132,3.0,3.0,64,0.00,,,0.01,Wunderground v.1.15,2013-11-05 17:15:00,
2013-11-05 12:21:00,60.1,47.5,30.32,SSE,167,2.0,2.0,63,0.00,,,0.01,Wunderground v.1.15,2013-11-05 17:21:00,
2013-11-05 12:27:00,60.3,48.1,30.32,SSW,193,1.0,4.0,64,0.00,,,0.01,Wunderground v.1.15,2013-11-05 17:27:00,
2013-11-05 12:33:00,60.6,47.5,30.32,SE,146,2.0,5.0,62,0.00,,,0.01,Wunderground v.1.15,2013-11-05 17:33:00,
2013-11-05 12:39:00,60.6,47.5,30.31,SE,142,2.0,5.0,62,0.00,,,0.01,Wunderground v.1.15,2013-11-05 17:39:00,
2013-11-05 12:45:00,60.4,47.3,30.31,SE,139,2.0,5.0,62,0.00,,,0.01,Wunderground v.1.15,2013-11-05 17:45:00,
2013-11-05 12:51:00,60.2,47.6,30.30,ESE,121,3.0,3.0,63,0.00,,,0.01,Wunderground v.1.15,2013-11-05 17:51:00,
2013-11-05 12:57:00,60.0,46.9,30.29,SSE,166,2.0,3.0,62,0.00,,,0.01,Wunderground v.1.15,2013-11-05 17:57:00,
2013-11-05 13:03:00,60.0,47.4,30.29,South,179,1.0,3.0,63,0.00,,,0.01,Wunderground v.1.15,2013-11-05 18:03:00,
2013-11-05 13:09:00,59.9,46.8,30.29,SW,215,2.0,4.0,62,0.00,,,0.01,Wunderground v.1.15,2013-11-05 18:09:00,
2013-11-05 13:15:00,60.0,46.9,30.28,SSE,162,3.0,6.0,62,0.00,,,0.01,Wunderground v.1.15,2013-11-05 18:15:00,
2013-11-05 13:21:00,60.1,47.9,30.28,SE,125,2.0,3.0,64,0.00,,,0.01,Wunderground v.1.15,2013-11-05 18:21:00,
2013-11-05 13:27:00,60.1,47.9,30.27,ESE,121,2.0,6.0,64,0.00,,,0.01,Wunderground v.1.15,2013-11-05 18:27:00,
2013-11-05 13:33:00,60.2,47.6,30.27,ENE,61,3.0,3.0,63,0.00,,,0.01,Wunderground v.1.15,2013-11-05 18:33:00,
2013-11-05 13:39:00,60.4,47.7,30.27,WSW,255,1.0,3.0,63,0.00,,,0.01,Wunderground v.1.15,2013-11-05 18:39:00,
2013-11-05 13:45:00,60.9,47.4,30.27,East,98,2.0,5.0,61,0.00,,,0.01,Wunderground v.1.15,2013-11-05 18:45:00,
2013-11-05 13:51:00,61.1,47.5,30.26,SSE,150,4.0,4.0,61,0.00,,,0.01,Wunderground v.1.15,2013-11-05 18:51:00,
2013-11-05 13:57:00,61.4,48.3,30.26,ESE,117,4.0,7.0,62,0.00,,,0.01,Wunderground v.1.15,2013-11-05 18:57:00,
2013-11-05 14:03:00,61.5,47.9,30.26,SE,131,5.0,5.0,61,0.00,,,0.01,Wunderground v.1.15,2013-11-05 19:03:00,
2013-11-05 14:09:00,61.6,47.6,30.25,SSE,158,3.0,5.0,60,0.00,,,0.01,Wunderground v.1.15,2013-11-05 19:09:00,
2013-11-05 14:15:00,61.7,48.5,30.25,South,182,4.0,6.0,62,0.00,,,0.01,Wunderground v.1.15,2013-11-05 19:15:00,
2013-11-05 14:21:00,61.7,47.2,30.25,SE,128,5.0,5.0,59,0.00,,,0.01,Wunderground v.1.15,2013-11-05 19:21:00,
2013-11-05 14:27:00,61.5,47.5,30.25,SE,138,5.0,5.0,60,0.00,,,0.01,Wunderground v.1.15,2013-11-05 19:27:00,
2013-11-05 14:33:00,61.5,47.9,30.25,SSE,153,3.0,4.0,61,0.00,,,0.01,Wunderground v.1.15,2013-11-05 19:33:00,
2013-11-05 14:39:00,61.6,47.6,30.24,SE,133,3.0,4.0,60,0.00,,,0.01,Wunderground v.1.15,2013-11-05 19:39:00,
2013-11-05 14:45:00,61.8,47.8,30.24,SE,130,4.0,9.0,60,0.00,,,0.01,Wunderground v.1.15,2013-11-05 19:45:00,
2013-11-05 14:51:00,62.1,48.0,30.24,SE,146,6.0,6.0,60,0.00,,,0.01,Wunderground v.1.15,2013-11-05 19:51:00,
2013-11-05 14:57:00,62.3,48.2,30.24,SE,130,5.0,8.0,60,0.00,,,0.01,Wunderground v.1.15,2013-11-05 19:57:00,
2013-11-05 15:03:00,62.6,47.1,30.24,SE,127,6.0,7.0,57,0.00,,,0.01,Wunderground v.1.15,2013-11-05 20:03:00,
2013-11-05 15:09:00,62.6,48.1,30.23,SE,124,5.0,8.0,59,0.00,,,0.01,Wunderground v.1.15,2013-11-05 20:09:00,
2013-11-05 15:15:00,62.7,47.7,30.23,ESE,111,3.0,5.0,58,0.00,,,0.01,Wunderground v.1.15,2013-11-05 20:15:00,
2013-11-05 15:21:00,62.7,49.1,30.23,ESE,119,3.0,5.0,61,0.00,,,0.01,Wunderground v.1.15,2013-11-05 20:21:00,
2013-11-05 15:27:00,62.8,48.3,30.23,ESE,120,3.0,5.0,59,0.00,,,0.01,Wunderground v.1.15,2013-11-05 20:27:00,
2013-11-05 15:33:00,62.8,48.3,30.23,SSE,149,3.0,4.0,59,0.00,,,0.01,Wunderground v.1.15,2013-11-05 20:33:00,
2013-11-05 15:39:00,62.7,47.7,30.23,SE,128,4.0,5.0,58,0.00,,,0.01,Wunderground v.1.15,2013-11-05 20:39:00,
2013-11-05 15:45:00,62.5,47.5,30.22,ESE,121,4.0,5.0,58,0.00,,,0.01,Wunderground v.1.15,2013-11-05 20:45:00,
2013-11-05 15:51:00,62.8,49.1,30.22,SE,132,4.0,4.0,61,0.00,,,0.01,Wunderground v.1.15,2013-11-05 20:51:00,
2013-11-05 15:57:00,63.1,47.6,30.22,SE,144,5.0,9.0,57,0.00,,,0.01,Wunderground v.1.15,2013-11-05 20:57:00,
2013-11-05 16:03:00,62.9,47.9,30.22,ESE,105,6.0,6.0,58,0.00,,,0.01,Wunderground v.1.15,2013-11-05 21:03:00,
2013-11-05 16:09:00,63.1,48.1,30.21,ESE,103,4.0,8.0,58,0.00,,,0.01,Wunderground v.1.15,2013-11-05 21:09:00,
2013-11-05 16:15:00,63.0,48.0,30.21,East,101,5.0,9.0,58,0.00,,,0.01,Wunderground v.1.15,2013-11-05 21:15:00,
2013-11-05 16:21:00,62.8,47.8,30.20,SE,124,6.0,6.0,58,0.00,,,0.01,Wunderground v.1.15,2013-11-05 21:21:00,
2013-11-05 16:27:00,62.8,48.3,30.20,SSE,161,4.0,6.0,59,0.00,,,0.01,Wunderground v.1.15,2013-11-05 21:27:00,
2013-11-05 16:33:00,62.9,47.9,30.20,SE,128,4.0,7.0,58,0.00,,,0.01,Wunderground v.1.15,2013-11-05 21:33:00,
2013-11-05 16:39:00,62.9,47.4,30.20,SE,125,4.0,7.0,57,0.00,,,0.01,Wunderground v.1.15,2013-11-05 21:39:00,
2013-11-05 16:45:00,62.9,47.9,30.20,SE,129,5.0,5.0,58,0.00,,,0.01,Wunderground v.1.15,2013-11-05 21:45:00,
2013-11-05 16:51:00,62.8,48.3,30.20,ESE,121,3.0,3.0,59,0.00,,,0.01,Wunderground v.1.15,2013-11-05 21:51:00,
2013-11-05 16:57:00,62.6,47.6,30.19,ESE,109,3.0,5.0,58,0.00,,,0.01,Wunderground v.1.15,2013-11-05 21:57:00,
2013-11-05 17:03:00,62.4,47.9,30.19,SE,131,3.0,4.0,59,0.00,,,0.01,Wunderground v.1.15,2013-11-05 22:03:00,
2013-11-05 17:09:00,62.2,47.7,30.19,ESE,118,3.0,4.0,59,0.00,,,0.01,Wunderground v.1.15,2013-11-05 22:09:00,
2013-11-05 17:15:00,62.0,48.0,30.19,SE,135,3.0,5.0,60,0.00,,,0.01,Wunderground v.1.15,2013-11-05 22:15:00,
2013-11-05 17:21:00,61.9,47.4,30.18,ESE,109,3.0,3.0,59,0.00,,,0.01,Wunderground v.1.15,2013-11-05 22:21:00,
2013-11-05 17:27:00,61.6,47.6,30.19,SSE,149,3.0,6.0,60,0.00,,,0.01,Wunderground v.1.15,2013-11-05 22:27:00,
2013-11-05 17:33:00,61.4,47.4,30.19,SE,131,2.0,4.0,60,0.00,,,0.01,Wunderground v.1.15,2013-11-05 22:33:00,
2013-11-05 17:39:00,61.2,47.6,30.19,ESE,117,2.0,4.0,61,0.00,,,0.01,Wunderground v.1.15,2013-11-05 22:39:00,
2013-11-05 17:45:00,61.0,47.0,30.19,SSE,157,2.0,2.0,60,0.00,,,0.01,Wunderground v.1.15,2013-11-05 22:45:00,
2013-11-05 17:51:00,60.8,47.3,30.19,SSE,151,2.0,2.0,61,0.00,,,0.01,Wunderground v.1.15,2013-11-05 22:51:00,
2013-11-05 17:57:00,60.5,47.0,30.19,SE,146,1.0,3.0,61,0.00,,,0.01,Wunderground v.1.15,2013-11-05 22:57:00,
2013-11-05 18:03:00,60.2,47.1,30.19,ESE,104,1.0,1.0,62,0.00,,,0.01,Wunderground v.1.15,2013-11-05 23:03:00,
2013-11-05 18:09:00,60.0,47.4,30.19,ESE,104,1.0,1.0,63,0.00,,,0.01,Wunderground v.1.15,2013-11-05 23:09:00,
2013-11-05 18:15:00,59.7,47.1,30.19,ESE,104,0.0,0.0,63,0.00,,,0.01,Wunderground v.1.15,2013-11-05 23:15:00,
2013-11-05 18:21:00,59.4,47.2,30.19,ESE,104,1.0,2.0,64,0.00,,,0.01,Wunderground v.1.15,2013-11-05 23:21:00,
2013-11-05 18:27:00,59.0,47.7,30.19,ESE,110,2.0,5.0,66,0.00,,,0.01,Wunderground v.1.15,2013-11-05 23:27:00,
2013-11-05 18:33:00,58.8,47.1,30.19,ESE,121,3.0,4.0,65,0.00,,,0.01,Wunderground v.1.15,2013-11-05 23:33:00,
2013-11-05 18:39:00,58.7,46.5,30.19,ESE,116,2.0,4.0,64,0.00,,,0.01,Wunderground v.1.15,2013-11-05 23:39:00,
2013-11-05 18:45:00,58.6,46.9,30.19,East,95,1.0,2.0,65,0.00,,,0.01,Wunderground v.1.15,2013-11-05 23:45:00,
2013-11-05 18:51:00,58.6,46.9,30.19,ESE,117,1.0,3.0,65,0.00,,,0.01,Wunderground v.1.15,2013-11-05 23:51:00,
2013-11-05 18:57:00,58.7,47.0,30.19,ESE,122,2.0,4.0,65,0.00,,,0.01,Wunderground v.1.15,2013-11-05 23:57:00,
2013-11-05 19:03:00,58.7,47.0,30.19,ESE,122,1.0,1.0,65,0.00,,,0.01,Wunderground v.1.15,2013-11-06 00:03:00,
2013-11-05 19:09:00,58.6,46.9,30.19,ESE,116,0.0,2.0,65,0.00,,,0.01,Wunderground v.1.15,2013-11-06 00:09:00,
2013-11-05 19:15:00,58.6,47.3,30.19,East,96,1.0,3.0,66,0.00,,,0.01,Wunderground v.1.15,2013-11-06 00:15:00,
2013-11-05 19:21:00,58.4,47.1,30.19,East,96,2.0,2.0,66,0.00,,,0.01,Wunderground v.1.15,2013-11-06 00:21:00,
2013-11-05 19:27:00,58.2,46.9,30.19,East,96,1.0,3.0,66,0.00,,,0.01,Wunderground v.1.15,2013-11-06 00:27:00,
2013-11-05 19:33:00,58.1,46.8,30.19,East,96,1.0,1.0,66,0.00,,,0.01,Wunderground v.1.15,2013-11-06 00:33:00,
2013-11-05 19:39:00,58.1,46.8,30.19,SE,127,1.0,3.0,66,0.00,,,0.01,Wunderground v.1.15,2013-11-06 00:39:00,
2013-11-05 19:45:00,58.1,47.2,30.18,ESE,119,2.0,2.0,67,0.00,,,0.01,Wunderground v.1.15,2013-11-06 00:45:00,
2013-11-05 19:51:00,58.1,47.2,30.18,ESE,102,3.0,3.0,67,0.00,,,0.01,Wunderground v.1.15,2013-11-06 00:51:00,
2013-11-05 19:57:00,58.1,47.6,30.18,East,98,3.0,3.0,68,0.00,,,0.01,Wunderground v.1.15,2013-11-06 00:57:00,
2013-11-05 20:03:00,57.9,47.4,30.18,East,101,2.0,3.0,68,0.00,,,0.01,Wunderground v.1.15,2013-11-06 01:03:00,
2013-11-05 20:09:00,57.8,47.7,30.18,East,101,2.0,3.0,69,0.00,,,0.01,Wunderground v.1.15,2013-11-06 01:09:00,
2013-11-05 20:15:00,57.8,47.3,30.18,East,101,2.0,2.0,68,0.00,,,0.01,Wunderground v.1.15,2013-11-06 01:15:00,
2013-11-05 20:21:00,57.7,47.2,30.18,ESE,105,2.0,3.0,68,0.00,,,0.01,Wunderground v.1.15,2013-11-06 01:21:00,
2013-11-05 20:27:00,57.8,47.3,30.18,ESE,111,1.0,5.0,68,0.00,,,0.01,Wunderground v.1.15,2013-11-06 01:27:00,
2013-11-05 20:33:00,57.8,47.3,30.17,ESE,111,2.0,4.0,68,0.00,,,0.01,Wunderground v.1.15,2013-11-06 01:33:00,
2013-11-05 20:39:00,58.0,47.5,30.17,ESE,118,2.0,4.0,68,0.00,,,0.01,Wunderground v.1.15,2013-11-06 01:39:00,
2013-11-05 20:45:00,58.0,47.5,30.17,ESE,119,1.0,2.0,68,0.00,,,0.01,Wunderground v.1.15,2013-11-06 01:45:00,
2013-11-05 20:51:00,58.0,47.5,30.17,ESE,119,1.0,1.0,68,0.00,,,0.01,Wunderground v.1.15,2013-11-06 01:51:00,
2013-11-05 20:57:00,58.1,47.2,30.17,SE,133,1.0,6.0,67,0.00,,,0.01,Wunderground v.1.15,2013-11-06 01:57:00,
2013-11-05 21:03:00,58.4,47.5,30.17,ESE,110,2.0,7.0,67,0.00,,,0.01,Wunderground v.1.15,2013-11-06 02:03:00,
2013-11-05 21:09:00,58.5,47.6,30.17,ESE,113,2.0,7.0,67,0.00,,,0.01,Wunderground v.1.15,2013-11-06 02:09:00,
2013-11-05 21:15:00,58.8,47.5,30.16,ESE,109,3.0,4.0,66,0.00,,,0.01,Wunderground v.1.15,2013-11-06 02:15:00,
2013-11-05 21:21:00,59.1,47.3,30.15,SE,132,4.0,6.0,65,0.00,,,0.01,Wunderground v.1.15,2013-11-06 02:21:00,
2013-11-05 21:27:00,59.3,47.5,30.16,SE,127,5.0,6.0,65,0.00,,,0.01,Wunderground v.1.15,2013-11-06 02:27:00,
2013-11-05 21:33:00,59.5,47.3,30.16,SSE,149,4.0,7.0,64,0.00,,,0.01,Wunderground v.1.15,2013-11-06 02:33:00,
2013-11-05 21:39:00,59.7,47.1,30.16,SE,144,4.0,8.0,63,0.00,,,0.01,Wunderground v.1.15,2013-11-06 02:39:00,
2013-11-05 21:45:00,59.8,47.6,30.16,SE,146,4.0,8.0,64,0.00,,,0.01,Wunderground v.1.15,2013-11-06 02:45:00,
2013-11-05 21:51:00,59.8,47.6,30.16,ESE,117,4.0,4.0,64,0.00,,,0.01,Wunderground v.1.15,2013-11-06 02:51:00,
2013-11-05 21:57:00,59.8,47.2,30.16,SSE,152,3.0,4.0,63,0.00,,,0.01,Wunderground v.1.15,2013-11-06 02:57:00,
2013-11-05 22:03:00,59.9,47.3,30.16,SE,143,3.0,3.0,63,0.00,,,0.01,Wunderground v.1.15,2013-11-06 03:03:00,
2013-11-05 22:09:00,59.9,47.3,30.16,SE,135,4.0,4.0,63,0.00,,,0.01,Wunderground v.1.15,2013-11-06 03:09:00,
2013-11-05 22:15:00,59.9,47.3,30.16,East,99,4.0,4.0,63,0.00,,,0.01,Wunderground v.1.15,2013-11-06 03:15:00,
2013-11-05 22:21:00,59.8,47.2,30.16,ESE,111,4.0,5.0,63,0.00,,,0.01,Wunderground v.1.15,2013-11-06 03:21:00,
2013-11-05 22:27:00,59.9,47.3,30.16,ESE,119,3.0,5.0,63,0.00,,,0.01,Wunderground v.1.15,2013-11-06 03:27:00,
2013-11-05 22:33:00,59.9,47.3,30.16,SE,144,3.0,7.0,63,0.00,,,0.01,Wunderground v.1.15,2013-11-06 03:33:00,
2013-11-05 22:39:00,60.0,47.4,30.16,SSE,155,4.0,7.0,63,0.00,,,0.01,Wunderground v.1.15,2013-11-06 03:39:00,
2013-11-05 22:45:00,60.0,47.8,30.15,SE,124,4.0,7.0,64,0.00,,,0.01,Wunderground v.1.15,2013-11-06 03:45:00,
2013-11-05 22:51:00,59.9,47.3,30.15,SE,143,4.0,4.0,63,0.00,,,0.01,Wunderground v.1.15,2013-11-06 03:51:00,
2013-11-05 22:57:00,59.9,47.3,30.16,SSW,198,3.0,4.0,63,0.00,,,0.01,Wunderground v.1.15,2013-11-06 03:57:00,
2013-11-05 23:03:00,60.0,47.4,30.16,SSE,166,2.0,3.0,63,0.00,,,0.01,Wunderground v.1.15,2013-11-06 04:03:00,
2013-11-05 23:09:00,60.0,47.4,30.16,East,96,3.0,6.0,63,0.00,,,0.01,Wunderground v.1.15,2013-11-06 04:09:00,
2013-11-05 23:15:00,60.0,47.4,30.16,SE,127,3.0,3.0,63,0.00,,,0.01,Wunderground v.1.15,2013-11-06 04:15:00,
2013-11-05 23:21:00,60.0,47.4,30.15,SE,132,2.0,2.0,63,0.00,,,0.01,Wunderground v.1.15,2013-11-06 04:21:00,
2013-11-05 23:27:00,60.1,47.5,30.15,SE,140,3.0,5.0,63,0.00,,,0.01,Wunderground v.1.15,2013-11-06 04:27:00,
2013-11-05 23:33:00,60.2,47.6,30.15,East,94,4.0,4.0,63,0.00,,,0.01,Wunderground v.1.15,2013-11-06 04:33:00,
2013-11-05 23:39:00,60.3,47.2,30.15,ESE,117,4.0,6.0,62,0.00,,,0.01,Wunderground v.1.15,2013-11-06 04:39:00,
2013-11-05 23:45:00,60.3,47.2,30.15,SE,142,4.0,5.0,62,0.00,,,0.01,Wunderground v.1.15,2013-11-06 04:45:00,
2013-11-05 23:51:00,60.3,47.2,30.14,SSE,164,2.0,2.0,62,0.00,,,0.01,Wunderground v.1.15,2013-11-06 04:51:00,
2013-11-05 23:57:00,60.4,47.3,30.14,SE,140,3.0,3.0,62,0.00,,,0.01,Wunderground v.1.15,2013-11-06 04:57:00,